Regional Weather Roundup
Issued by NWS

Home | Current Version | Previous Version | Text Only | Print | Product List | Glossary Off
Versions: 1 2 3 4 5 6 7 8 9 10 11 12 13 14 15 16 17 18 19 20 21 22 23 24 25 26 27

000
ASUS45 KSLC 312310
RWRUT

UTAH REGIONAL WEATHER ROUNDUP
NATIONAL WEATHER SERVICE SALT LAKE CITY UT
500 PM MDT TUE MAY 31 2016

UTZ001>011-023>025-010000-

NORTHERN UTAH

CITY           SKY/WX    TMP DP  RH WIND       PRES   REMARKS
BRIGHAM CITY     N/A     75  22  13 CALM      30.04F
DUGWAY         MOSUNNY   80  22  12 NW15G23   30.03
HILL AFB       SUNNY     73  32  22 NW9       30.06F
LOGAN          SUNNY     73  37  27 CALM      30.04F
OGDEN          SUNNY     73  30  20 VRB5      30.04F
PROVO AIRPORT  SUNNY     75  36  23 NW16      30.02F
SALT LAKE CITY MOSUNNY   77  27  15 N10G18    30.03F
VERNAL         SUNNY     74  35  24 N5        30.01F
WENDOVER       SUNNY     79  30  17 NE5       30.03F
HEBER CITY     SUNNY     75  28  17 N6        30.03F
WEST JORDAN    SUNNY     72  25  17 NW16      30.06S

$$

UTZ012>022-026-027-010000-

SOUTHERN/CENTRAL UTAH

CITY           SKY/WX    TMP DP  RH WIND       PRES   REMARKS
BLANDING       MOSUNNY   80  28  15 NW15G21   30.04S
BRYCE CANYON   MOSUNNY   73  21  14 NW16G22   30.12F
CEDAR CITY     SUNNY     80  22  11 N12G20    30.02F
DELTA          SUNNY     77  18  10 NW8       30.02F
HANKSVILLE     SUNNY     86  23  10 W6        29.91F
MILFORD        SUNNY     81  21  11 NE15G21   30.01F
MOAB/CYNLANDS  SUNNY     84  24  11 S6        29.89F
PRICE          SUNNY     78  22  12 MISG      30.00F
ST GEORGE      CLEAR     93  32  11 W14       29.82F
KANAB          SUNNY     86  28  12 W7        29.95F

$$

REGIONAL REPORTS     COLORADO/ARIZONA

CITY           SKY/WX    TMP DP  RH WIND       PRES   REMARKS
CRAIG, CO      MOSUNNY   68  34  28 NW10      30.07F
GRAND JUNCTION MOSUNNY   82  31  15 NW21G32   29.91F
RIFLE          LGT RAIN  73  32  22 MISG      29.99R
MONTROSE       SUNNY     79  31  17 N17       29.98F
CORTEZ         SUNNY     82  22  11 W18G25    29.96F
PAGE, AZ       SUNNY     88  22   9 N8        29.87F
GRAND CANYON   MOSUNNY   78  19  11 N6        30.04F
KINGMAN        MOSUNNY   93  27   9 N14G25    29.84F
FLAGSTAFF      MOSUNNY   73  19  13 N9        30.06S

$$

REGIONAL REPORTS    NEVADA/IDAHO/WYOMING

CITY           SKY/WX    TMP DP  RH WIND       PRES   REMARKS
LAS VEGAS, NV  MOSUNNY   97  30   9 VRB6      29.73F HX  91
ELY            SUNNY     75  26  16 N12G20    30.11F
ELKO           SUNNY     78  28  16 VRB3      30.07F
POCATELLO, ID  MOSUNNY   71  29  21 SE5       30.09F
BURLEY         SUNNY     73  32  22 VRB7      30.05F
EVANSTON, WY   CLOUDY    65  33  30 NW3       30.14F
ROCK SPRINGS   PTSUNNY   67  27  22 NW8       30.11F
KEMMERER         N/A     64  28  25 NW12G20   30.15F

$$




USA.gov is the U.S. government's official web portal to all federal, state and local government web resources and services.